YO6RK-13 Weather Reports


time (UTC)temp
F
wind
direction
speed
knots
gust
knots
rain 1hr
in
rain 24hr
in
rain mn
in
humidity
%
barometer
mb
20260506115021 80 0 0.0 0.0 0.00 0.00 0.00 24 1011.2
20260506114539 79 0 0.0 0.0 0.00 0.00 0.00 24 1011.3
20260506114038 83 0 0.0 0.0 0.00 0.00 0.00 26 1011.4
20260506112517 80 180 0.0 0.0 0.00 0.00 0.00 28 1011.4
20260506112034 78 315 0.0 0.0 0.00 0.00 0.00 28 1011.4
20260506111549 78 315 0.0 0.0 0.00 0.00 0.00 29 1011.4
20260506110509 80 0 0.0 0.0 0.00 0.00 0.00 27 1011.5
20260506110035 80 225 0.0 0.0 0.00 0.00 0.00 29 1011.6
20260506105542 79 0 0.0 0.0 0.00 0.00 0.00 30 1011.6
20260506105033 79 315 0.0 0.0 0.00 0.00 0.00 30 1011.8
20260506104540 78 338 0.0 0.0 0.00 0.00 0.00 30 1011.8
20260506104016 79 45 0.0 0.0 0.00 0.00 0.00 30 1011.9
20260506103023 77 0 0.0 0.0 0.00 0.00 0.00 33 1011.9
20260506102522 78 0 0.0 0.0 0.00 0.00 0.00 33 1012.0
20260506102012 78 0 1.7 1.7 0.00 0.00 0.00 32 1012.1
20260506101028 78 315 0.0 0.0 0.00 0.00 0.00 33 1012.2
20260506100521 76 0 0.0 0.0 0.00 0.00 0.00 33 1012.3
20260506095033 78 68 0.0 0.0 0.00 0.00 0.00 32 1012.3
20260506094509 76 23 0.0 0.0 0.00 0.00 0.00 32 1012.3
20260506094041 76 23 0.0 0.0 0.00 0.00 0.00 32 1012.5
20260506093033 79 158 0.0 0.0 0.00 0.00 0.00 34 1012.4
20260506092510 78 135 0.0 0.0 0.00 0.00 0.00 33 1012.5
20260506091528 78 225 0.0 0.0 0.00 0.00 0.00 36 1012.5
20260506091023 78 23 0.0 0.0 0.00 0.00 0.00 36 1012.5
20260506090016 75 23 0.0 0.0 0.00 0.00 0.00 37 1012.6
20260506085516 75 23 0.0 0.0 0.00 0.00 0.00 39 1012.7
20260506085035 75 270 0.0 0.0 0.00 0.00 0.00 37 1012.7
20260506084517 73 270 0.0 0.0 0.00 0.00 0.00 38 1012.6
20260506084010 72 0 0.0 0.0 0.00 0.00 0.00 42 1012.7
20260506083534 72 23 0.0 0.0 0.00 0.00 0.00 45 1012.6
20260506083025 73 0 0.0 0.0 0.00 0.00 0.00 46 1012.7
20260506082516 71 293 0.0 0.0 0.00 0.00 0.00 48 1012.7
20260506082033 71 338 4.3 4.3 0.00 0.00 0.00 50 1012.8
20260506081525 70 338 0.0 1.7 0.00 0.00 0.00 52 1012.5
20260506081032 71 338 0.0 0.0 0.00 0.00 0.00 51 1012.6
20260506080533 71 23 0.0 0.0 0.00 0.00 0.00 51 1012.5
20260506073510 70 203 0.0 0.0 0.00 0.00 0.00 49 1012.9
20260506072534 69 315 0.0 1.7 0.00 0.00 0.00 50 1012.7
20260506072050 68 338 0.0 0.0 0.00 0.00 0.00 50 1012.7
20260506070524 68 293 0.0 0.0 0.00 0.00 0.00 54 1012.9
20260506062516 62 315 0.0 0.0 0.00 0.00 0.00 61 1012.9
20260506062023 62 0 0.0 0.0 0.00 0.00 0.00 62 1012.8
20260506061532 61 0 0.0 0.0 0.00 0.00 0.00 60 1013.0
20260506061031 62 23 3.5 3.5 0.00 0.00 0.00 58 1013.0
20260506060521 62 0 2.6 2.6 0.00 0.00 0.00 60 1013.0
20260506045025 54 270 0.0 0.0 0.00 0.00 0.00 72 1013.0
20260506044516 53 338 0.0 0.0 0.00 0.00 0.00 74 1012.9
20260506044037 52 338 0.0 0.0 0.00 0.00 0.00 75 1012.9
20260506043536 51 338 0.0 0.0 0.00 0.00 0.00 77 1012.9
20260506043018 50 338 0.0 0.0 0.00 0.00 0.00 79 1012.9
20260506042541 50 315 0.0 0.0 0.00 0.00 0.00 81 1012.9
20260506042031 49 248 0.0 0.0 0.00 0.00 0.00 82 1012.9
20260506041517 48 248 0.0 0.0 0.00 0.00 0.00 83 1012.9
20260506041030 48 248 0.0 0.0 0.00 0.00 0.00 84 1012.8
20260506040529 47 248 0.0 0.0 0.00 0.00 0.00 85 1012.9
20260506035520 46 315 0.0 0.0 0.00 0.00 0.00 86 1012.8
20260506035018 46 315 0.0 0.0 0.00 0.00 0.00 86 1012.8
20260506034519 46 315 0.0 0.0 0.00 0.00 0.00 86 1012.8
20260506033525 46 315 0.0 0.0 0.00 0.00 0.00 86 1012.7
20260506033017 46 315 0.0 0.0 0.00 0.00 0.00 86 1012.7
20260506032515 46 315 0.0 0.0 0.00 0.00 0.00 86 1012.6
20260506031531 46 315 0.0 0.0 0.00 0.00 0.00 86 1012.7
20260506030530 46 315 0.0 0.0 0.00 0.00 0.00 86 1012.7
20260506025536 46 315 0.0 0.0 0.00 0.00 0.00 86 1012.5
20260506025021 46 315 0.0 0.0 0.00 0.00 0.00 86 1012.6
20260506024536 46 315 0.0 0.0 0.00 0.00 0.00 86 1012.5
20260506024043 46 315 0.0 0.0 0.00 0.00 0.00 85 1012.5
20260506023534 47 315 0.0 0.0 0.00 0.00 0.00 85 1012.5
20260506023042 47 315 0.0 0.0 0.00 0.00 0.00 84 1012.4
20260506022533 47 315 0.0 0.0 0.00 0.00 0.00 84 1012.5
20260506022024 48 315 0.0 0.0 0.00 0.00 0.00 84 1012.4
20260506021514 48 315 0.0 0.0 0.00 0.00 0.00 83 1012.5
20260506021026 48 315 0.0 0.0 0.00 0.00 0.00 83 1012.4
20260506020529 48 315 0.0 0.0 0.00 0.00 0.00 84 1012.4
20260506020026 48 315 0.0 0.0 0.00 0.00 0.00 84 1012.3
20260506015525 48 315 0.0 0.0 0.00 0.00 0.00 84 1012.2
20260506014524 48 315 0.0 0.0 0.00 0.00 0.00 83 1012.4
20260506014018 48 315 0.0 0.0 0.00 0.00 0.00 83 1012.4
20260506013512 49 315 0.0 0.0 0.00 0.00 0.00 83 1012.5
20260506012529 49 315 0.0 0.0 0.00 0.00 0.00 82 1012.4
20260506011532 49 315 0.0 0.0 0.00 0.00 0.00 82 1012.3
20260506010514 49 315 0.0 0.0 0.00 0.00 0.00 81 1012.3
20260506010212 49 315 0.0 0.0 0.00 0.00 0.00 81 1012.3
20260506005037 50 315 0.0 0.0 0.00 0.00 0.00 81 1012.2
20260506004521 50 315 0.0 0.0 0.00 0.00 0.00 81 1012.1
20260506004011 50 315 0.0 0.0 0.00 0.00 0.00 81 1012.1
20260506003518 50 315 0.0 0.0 0.00 0.00 0.00 81 1012.1
20260506003026 50 315 0.0 0.0 0.00 0.00 0.00 80 1012.1
20260506002509 50 315 0.0 0.0 0.00 0.00 0.00 80 1012.0
20260506002026 51 315 0.0 0.0 0.00 0.00 0.00 79 1012.0
20260506001516 51 315 0.0 0.0 0.00 0.00 0.00 79 1012.0
20260506001022 51 338 0.0 0.0 0.00 0.00 0.00 78 1011.9
20260506000535 52 315 0.0 0.0 0.00 0.00 0.00 77 1011.9
20260506000030 52 315 0.0 1.7 0.00 0.00 0.00 77 1011.9
20260505235516 53 270 0.0 0.0 0.00 0.00 0.00 76 1011.7
20260505235040 53 248 0.0 0.0 0.00 0.00 0.00 75 1011.8
20260505234523 52 293 0.0 0.0 0.00 0.00 0.00 76 1011.8
20260505234018 52 338 0.0 0.0 0.00 0.00 0.00 76 1011.8
20260505233014 52 315 0.0 0.0 0.00 0.00 0.00 76 1011.9
20260505232522 52 315 0.0 0.0 0.00 0.00 0.00 76 1011.9
20260505232018 51 293 0.0 0.0 0.00 0.00 0.00 77 1012.0
20260505231546 52 315 0.9 3.5 0.00 0.00 0.00 76 1012.0
20260505231028 52 0 0.9 0.9 0.00 0.00 0.00 75 1012.1
20260505230511 53 315 2.6 2.6 0.00 0.00 0.00 75 1012.1
20260505230010 53 315 0.9 0.9 0.00 0.00 0.00 74 1012.0
20260505225518 53 315 1.7 1.7 0.00 0.00 0.00 75 1012.1
20260505224525 53 338 1.7 1.7 0.00 0.00 0.00 73 1012.1
20260505224032 54 315 0.0 0.0 0.00 0.00 0.00 72 1012.1
20260505223531 53 315 1.7 1.7 0.00 0.00 0.00 73 1012.0
20260505223022 53 293 3.5 3.5 0.00 0.00 0.00 73 1012.0
20260505222521 53 293 2.6 0.0 0.00 0.00 0.00 73 1012.0
20260505222022 53 23 1.7 1.7 0.00 0.00 0.00 74 1011.9
20260505221537 53 338 1.7 2.6 0.00 0.00 0.00 73 1011.9
20260505221021 54 315 0.9 0.9 0.00 0.00 0.00 72 1012.0
20260505220528 54 338 1.7 2.6 0.00 0.00 0.00 72 1012.0
20260505220019 55 0 0.0 0.0 0.00 0.00 0.00 71 1011.9
20260505215049 55 293 0.9 1.7 0.00 0.00 0.00 70 1011.9
20260505214517 55 293 0.9 0.9 0.00 0.00 0.00 69 1012.0
20260505214025 55 315 0.0 1.7 0.00 0.00 0.00 69 1011.9
20260505213014 55 338 0.0 0.0 0.00 0.00 0.00 70 1012.0
20260505212038 56 0 0.0 0.0 0.00 0.00 0.00 68 1012.1
20260505211513 56 293 0.0 0.0 0.00 0.00 0.00 68 1012.1
20260505211036 56 293 0.0 0.0 0.00 0.00 0.00 68 1012.1
20260505210012 56 293 0.0 0.0 0.00 0.00 0.00 69 1012.1
20260505205511 56 293 0.0 0.0 0.00 0.00 0.00 69 1012.1
20260505205028 56 293 0.0 0.9 0.00 0.00 0.00 70 1011.9
20260505204543 56 315 0.0 0.0 0.00 0.00 0.00 69 1011.9
20260505204034 57 315 0.0 0.0 0.00 0.00 0.00 68 1012.0
20260505203532 57 315 0.0 0.0 0.00 0.00 0.00 67 1012.1
20260505203037 58 315 0.0 0.0 0.00 0.00 0.00 66 1012.1
20260505202540 58 338 0.0 0.0 0.00 0.00 0.00 65 1012.0
20260505202040 58 315 0.0 0.0 0.00 0.00 0.00 65 1011.9
20260505201519 59 315 0.0 0.0 0.00 0.00 0.00 65 1011.8
20260505200516 58 293 0.0 0.0 0.00 0.00 0.00 66 1011.8
20260505195514 58 248 0.0 0.0 0.00 0.00 0.00 66 1011.8
20260505194512 58 248 0.0 0.0 0.00 0.00 0.00 66 1011.7
20260505193512 58 248 0.0 0.0 0.00 0.00 0.00 66 1011.7
20260505193029 58 248 0.0 0.0 0.00 0.00 0.00 66 1011.6
20260505192536 58 248 0.0 0.0 0.00 0.00 0.00 66 1011.6
20260505191544 59 248 0.0 0.0 0.00 0.00 0.00 65 1011.6
20260505191035 59 248 0.0 0.0 0.00 0.00 0.00 65 1011.6
20260505190523 60 248 0.0 0.0 0.00 0.00 0.00 64 1011.5
20260505190044 60 248 0.0 0.0 0.00 0.00 0.00 63 1011.6
20260505185510 60 248 0.0 0.0 0.00 0.00 0.00 63 1011.5
20260505185028 61 203 0.0 0.0 0.00 0.00 0.00 62 1011.6
20260505184534 61 203 0.0 0.0 0.00 0.00 0.00 61 1011.7
20260505184042 62 203 0.0 0.0 0.00 0.00 0.00 60 1011.5
20260505183534 62 203 0.0 0.0 0.00 0.00 0.00 60 1011.4
20260505183016 62 203 0.0 0.0 0.00 0.00 0.00 59 1011.4
20260505182541 62 203 0.0 0.0 0.00 0.00 0.00 59 1011.5
20260505182031 62 203 0.0 0.0 0.00 0.00 0.00 59 1011.3
20260505181530 62 248 0.0 0.0 0.00 0.00 0.00 60 1011.2
20260505181023 61 293 0.0 0.0 0.00 0.00 0.00 60 1011.3
20260505180529 62 293 0.0 0.0 0.00 0.00 0.00 59 1011.3
20260505180029 62 293 0.0 0.0 0.00 0.00 0.00 57 1011.1
20260505175536 63 293 0.0 0.0 0.00 0.00 0.00 56 1011.2
20260505175011 64 293 0.0 0.0 0.00 0.00 0.00 55 1011.0
20260505174034 65 293 0.0 0.0 0.00 0.00 0.00 51 1011.0
20260505173509 66 315 0.0 0.0 0.00 0.00 0.00 49 1010.9
20260505173034 67 315 0.0 0.0 0.00 0.00 0.00 47 1010.9
20260505172025 69 23 0.0 0.0 0.00 0.00 0.00 42 1010.9
20260505171032 71 45 0.0 0.0 0.00 0.00 0.00 36 1010.8
20260505170523 71 45 0.0 0.0 0.00 0.00 0.00 35 1010.7
20260505165535 71 45 0.0 0.0 0.00 0.00 0.00 35 1010.7
20260505165017 72 45 0.0 0.0 0.00 0.00 0.00 35 1010.6
20260505164542 72 45 0.0 0.0 0.00 0.00 0.00 36 1010.5
20260505164029 73 45 0.0 0.0 0.00 0.00 0.00 35 1010.5
20260505163525 73 45 0.0 0.0 0.00 0.00 0.00 34 1010.5
20260505162536 73 45 0.0 0.0 0.00 0.00 0.00 34 1010.7
20260505162028 74 45 0.0 0.0 0.00 0.00 0.00 33 1010.7
20260505161519 74 68 0.0 0.0 0.00 0.00 0.00 33 1010.8
20260505161027 74 68 0.0 0.0 0.00 0.00 0.00 32 1010.8
20260505160534 74 68 0.0 0.0 0.00 0.00 0.00 32 1010.8
20260505153022 75 203 0.0 0.0 0.00 0.00 0.00 32 1010.9
20260505152537 75 338 0.0 0.0 0.00 0.00 0.00 31 1011.0
20260505152013 75 338 3.5 3.5 0.00 0.00 0.00 30 1010.9
20260505151528 75 158 0.0 0.0 0.00 0.00 0.00 31 1011.0
20260505151028 74 158 0.0 0.0 0.00 0.00 0.00 30 1011.0
20260505140525 76 158 0.0 0.0 0.00 0.00 0.00 29 1011.6
20260505124031 76 0 0.0 0.0 0.00 0.00 0.00 29 1012.3
20260505123538 76 23 0.0 0.0 0.00 0.00 0.00 31 1012.3
20260505122513 76 23 0.0 0.0 0.00 0.00 0.00 31 1012.3
20260505121528 75 0 0.0 0.0 0.00 0.00 0.00 31 1012.5
20260505121035 74 315 3.5 3.5 0.00 0.00 0.00 29 1012.5
20260505120512 77 180 0.0 0.0 0.00 0.00 0.00 28 1012.6
20260505120039 77 158 0.0 0.0 0.00 0.00 0.00 29 1012.6